Location: Aufkirchen
(47.9603°N, 11.3653°E)
Time: 10:42:42
(UTC+01:00)

Tiros 1 - Pass Details

Date: 29 November 2020
Orbit: 630 x 663 km, 48.4° (Epoch: 21 January)

Event Time Altitude Azimuth Distance (km) Brightness Sun altitude
Rises 21:17:24 0° 285° (WNW) 2,980 11.2 -47.8°
Enters shadow 21:17:55 - 283° (WNW) 2,793 11.1 -47.9°
Reaches altitude 10° 21:20:02 10° 273° (W) 2,060 - -48.2°
Maximum altitude 21:24:00 27° 216° (SW) 1,249 - -48.8°
Drops below altitude 10° 21:27:55 10° 159° (SSE) 2,033 - -49.4°
Sets 21:30:30 0° 147° (SSE) 2,933 - -49.8°
